Regional Weather Roundup
Issued by NWS

Home | Current Version | Previous Version | Graphics & Text | Print | Product List | Glossary On
Versions: 1 2 3 4 5 6 7 8 9 10 11 12 13 14 15 16 17 18 19 20 21 22 23 24 25 26 27 28 29 30 31 32 33 34 35 36 37 38 39 40 41 42 43 44 45 46 47 48 49 50
000
ASUS43 KTOP 010908
RWRKS

WEATHER ROUNDUP FOR KANSAS
NATIONAL WEATHER SERVICE GOODLAND KS
400 AM CDT SAT NOV 01 2014

NOTE:  "FAIR" INDICATES FEW OR NO CLOUDS BELOW 12,000 FEET WITH NO
SIGNIFICANT WEATHER AND/OR OBSTRUCTIONS TO VISIBILITY.

KSZ001>006-013>018-027>032-041>047-011000-
NORTHWEST KANSAS

CITY           SKY/WX    TMP DP  RH WIND       PRES   REMARKS
GOODLAND       PTCLDY    32  21  64 S24       30.11F WCI  19
HAYS           CLEAR     28  16  59 SE12      30.31F WCI  18
HILL CITY      PTCLDY    32  16  51 SE10      30.28F WCI  24
RUSSELL        CLEAR     30  18  60 SE10      30.33F WCI  21
$$

KSZ061>065-074>080-084>089-011000-
SOUTHWEST KANSAS

CITY           SKY/WX    TMP DP  RH WIND       PRES   REMARKS
DODGE CITY     PTCLDY    34  16  47 S18       30.29F WCI  23
ELKHART          N/A     36  21  54 S17         N/A  WCI  26
GARDEN CITY    PTCLDY    34  19  54 S18       30.23F WCI  23
GREAT BEND     CLEAR     30  16  55 SE13      30.35F WCI  20
LIBERAL        CLEAR     36  19  51 SE10      30.27F WCI  28
PRATT          PTCLDY    32  19  59 SE7       30.37S
$$

KSZ066>073-081>083-090>101-011000-
SOUTHEAST KANSAS

CITY           SKY/WX    TMP DP  RH WIND       PRES   REMARKS
CHANUTE          N/A    N/A N/A N/A MISG      30.45S
COFFEYVILLE    CLEAR     27  22  81 E3        30.45S
HUTCHINSON     CLEAR     31  18  58 SE9       30.40F
MEDICINE LODGE   N/A     32  18  56 SE5       30.38F
NEWTON         CLEAR     28  16  59 SE8       30.41F
PARSONS        PTCLDY    25  21  85 CALM      30.45F
WICHITA INTL   CLEAR     33  18  53 SE9       30.41F
WICHITA JABRA  CLEAR     27  18  69 E5        30.41F
WICHITA MCCONL PTCLDY    32  16  51 E6        30.41F
WINFIELD       PTCLDY    29  20  69 E6        30.43F
$$

KSZ007>012-019>026-033>040-048>060-102>105-011000-
NORTHEAST KANSAS

CITY           SKY/WX    TMP DP  RH WIND       PRES   REMARKS
CONCORDIA      PTCLDY    30  21  69 SE13      30.37F WCI  20
EMPORIA        CLEAR     24  19  81 CALM      30.45R
LAWRENCE       CLEAR     23  20  88 S3        30.47F
MANHATTAN      PTCLDY    22  19  89 CALM      30.45S
MARYSVILLE     PTCLDY    27  19  74 SE7       30.42F
OLATHE IND     CLEAR     29  20  69 E5        30.46F
OLATHE EXE     CLEAR     30  19  63 NE5       30.45F
SALINA         PTCLDY    32  18  56 SE8       30.41F
TOPEKA BILLARD PTCLDY    26  22  84 CALM      30.47S
TOPEKA FORBES  PTCLDY    26  19  74 CALM      30.45S
$$



USA.gov is the U.S. government's official web portal to all federal, state and local government web resources and services.